User: anonymous
Location: Seminole
(32.7190°N, 102.6440°W)
Time: 08:02:45
(UTC-05:00)
Language:

Meteor 2-10 - Orbit

View from above orbital plane
View from above orbital plane
View from above satellite
View from above satellite

Ground track
Ground track

The orbit data is extracted from the following two-line orbital elements,

1 14452U 83109A   14292.65384667  .00000250  00000-0  95148-4 0  6300
2 14452 081.1622 336.8474 0089799 319.3220 040.1274 14.26264284610526
Epoch (UTC): 19 October 2014 15:41:32
Eccentricity: 0.0089799
inclination: 81.1622°
perigee height: 740 km
apogee height: 869 km
right ascension of ascending node: 336.8474°
argument of perigee: 319.3220°
revolutions per day: 14.26264284
mean anomaly at epoch: 40.1274°
orbit number at epoch: 61052

The dashed part of the orbit path shows where the satellite is in the earth's shadow,  

DLR